Cloud_Cover
69 75 5 5 99 100 100 100 100 98 100 7 58 13 7 8 5 14 90 100 60 0 0 0 0 0 0 0 0 0 0 0 0 0 0 0 0 0 5 5 4 2 0
100 97 5 5 8 100 100 100 100 100 100 100 46 28 9 5 5 5 14 87 100 91 5 2 0 0 0 0 0 0 0 0 0 0 0 0 0 0 0 4 0 0 0
59 100 51 41 86 79 87 100 100 100 98 100 100 30 62 39 5 5 91 98 87 100 100 9 5 2 2 0 0 0 0 0 0 0 0 0 0 0 0 0 0 0 2
95 100 100 100 100 99 44 63 100 100 100 100 100 100 34 8 33 52 18 62 99 100 100 100 55 13 16 5 3 2 0 0 0 0 0 0 0 0 0 2 3 0 5
100 98 100 100 100 100 96 89 98 100 100 100 100 100 100 100 66 100 96 35 97 97 100 100 100 84 89 68 4 0 0 0 0 0 0 0 0 0 0 1 0 44 3
100 100 100 100 100 100 100 63 93 100 100 100 100 100 100 100 100 100 100 100 100 100 100 100 100 100 100 99 7 84 1 0 0 0 0 0 0 0 0 4 0 0 0
100 100 100 100 100 100 98 91 99 100 100 76 100 97 100 100 100 100 97 97 100 100 100 100 100 99 100 100 100 38 48 10 4 0 0 0 0 0 0 0 2 0 0
100 100 100 100 100 100 100 100 100 82 100 100 70 72 34 62 100 100 100 100 100 100 100 100 100 100 100 100 100 100 76 65 5 5 0 0 0 0 0 0 0 0 9
100 100 100 100 100 100 92 100 100 100 100 100 100 100 96 60 100 100 100 100 100 99 100 99 100 100 100 100 100 100 100 98 12 5 6 3 0 0 7 6 6 43 0
100 100 100 100 100 100 100 100 100 100 100 99 98 100 100 67 98 100 100 100 100 100 100 100 100 100 100 100 100 100 100 100 90 11 5 5 32 0 21 1 0 1 3
100 100 100 100 100 100 100 100 84 72 99 87 94 100 100 100 100 100 100 100 100 96 80 81 100 98 100 100 100 100 93 76 99 100 82 24 5 5 5 1 0 0 0
100 100 100 100 100 100 100 100 98 100 100 100 100 80 100 100 100 100 100 100 100 100 100 100 99 100 100 92 98 78 100 72 5 25 12 2 3 5 5 5 5 4 1
100 100 100 100 100 100 90 89 100 100 100 100 44 98 98 100 100 100 100 100 100 100 100 99 100 93 98 95 99 58 44 10 37 51 38 15 37 30 9 20 4 5 1
100 100 100 100 100 100 100 100 100 99 83 100 100 100 64 91 100 100 100 100 100 100 98 96 99 75 100 100 70 40 70 11 50 92 98 98 56 57 83 95 88 63 62
100 100 100 100 100 100 100 100 100 100 100 100 100 58 88 87 100 100 100 100 100 100 100 100 91 44 83 100 98 96 53 62 6 5 0 3 0 57 98 90 100 96 100
100 100 100 100 100 100 100 100 100 100 100 100 87 62 98 68 10 100 100 100 100 100 100 100 100 100 100 100 99 99 100 100 100 36 55 60 9 22 17 44 100 100 100
84 100 100 100 100 100 100 100 100 81 59 92 100 100 99 13 28 89 100 100 100 91 100 35 78 96 100 100 100 100 100 100 98 100 76 97 96 99 87 19 8 45 93
3 85 100 100 100 99 100 100 100 100 66 6 4 6 34 17 40 98 92 14 0 23 49 45 29 58 76 80 97 100 100 41 83 99 68 89 100 90 96 60 43 88 100
5 0 93 98 5 55 67 16 5 3 0 0 0 0 0 11 39 7 80 66 22 2 76 99 49 66 96 100 100 100 100 100 82 91 100 100 96 100 100 32 26 78 98
5 5 4 6 6 5 0 4 5 3 0 0 0 0 0 0 0 0 0 1 32 66 91 6 39 82 95 92 94 100 98 100 94 43 38 100 100 100 100 100 99 96 93
3 1 0 0 0 0 0 0 0 0 0 0 0 0 0 3 3 4 4 4 0 0 34 99 100 97 77 50 72 78 99 100 100 84 96 99 100 100 100 100 100 100 100
0 0 0 0 0 0 0 0 0 0 0 0 0 0 5 5 10 60 71 63 56 25 9 21 93 100 100 100 99 98 89 60 46 85 100 100 100 100 100 100 100 100 100
2 2 5 3 1 0 0 0 0 0 0 0 0 0 5 5 5 20 98 100 100 100 95 98 80 100 100 100 100 100 100 100 100 100 100 100 100 100 100 100 100 100 100
5 5 5 2 0 0 0 0 0 0 0 0 0 0 2 5 5 21 53 88 100 100 100 88 100 100 100 100 100 100 100 96 100 100 100 100 100 100 100 100 100 100 100
98 28 5 0 0 0 0 0 0 0 0 0 0 0 0 5 39 75 80 98 100 100 100 100 100 100 100 100 100 100 100 100 100 100 100 100 100 100 100 100 100 100 100
88 18 3 1 0 0 0 0 0 0 0 0 0 0 0 4 27 47 94 100 100 100 100 100 100 100 100 100 100 100 100 100 100 100 100 100 100 100 100 100 100 100 100